軌道要素
Epoch 2021 Mar. 7.0 TT = JDT 2459280.5
T 2021 Mar. 24.23576 TT Rudenko
q 4.3260951 (2000.0) P Q
z -0.0007538 Peri. 311.06465 +0.57206950 +0.81018880
+/-0.0000054 Node 350.62924 -0.28569706 +0.05078544
e 1.0032611 Incl. 51.70681 -0.76883918 +0.58396485
From 235 observations 2020 Mar. 16-Nov. 13, mean residual 0".6.
|